Location: Dogstar Observatory
(35.3981°N, 83.1078°W)
Time: 10:03:11
(UTC-05:00)

ISS - Visible Passes

Search period start: 28 November 2021 00:00
Search period end: 08 December 2021 00:00
Orbit: 417 x 423 km, 51.6° (Epoch: 28 November)

Date Brightness Start Highest point End Pass type
(mag) Time Alt. Az. Time Alt. Az. Time Alt. Az.
03 Dec -1.2 19:01:35 10° NNW 19:02:03 12° NNW 19:02:03 12° NNW visible
04 Dec -1.7 18:14:52 10° N 18:16:41 14° NNE 18:17:05 13° NE visible
05 Dec -2.4 19:03:19 10° NW 19:05:20 31° NNW 19:05:20 31° NNW visible
06 Dec -2.8 18:16:15 10° NNW 18:19:17 30° NE 18:20:49 21° E visible
06 Dec -0.5 19:53:15 10° WNW 19:53:51 13° W 19:53:51 13° W visible
07 Dec -2.6 19:05:35 10° WNW 19:08:49 42° SW 19:09:45 33° S visible
